Regional Weather Roundup
Issued by NWS

Home | Current Version | Previous Version | Graphics & Text | Print | Product List | Glossary On
Versions: 1 2 3 4 5 6 7 8 9 10 11 12 13 14 15 16 17 18 19 20 21 22 23 24 25 26 27 28 29 30 31 32 33 34 35 36 37 38 39 40 41 42 43 44 45 46 47 48 49 50
000
ASUS45 KBOU 030407
RWRCO

WEATHER ROUNDUP FOR COLORADO
NATIONAL WEATHER SERVICE DENVER/BOULDER CO
1000 PM MDT WED SEP 02 2015

NOTE: "FAIR" INDICATES FEW OR NO CLOUDS BELOW 12000 FEET WITH NO
SIGNIFICANT WEATHER AND/OR OBSTRUCTIONS TO VISIBILITY.

COZ001>005-013-030-031-030500-
...NORTHWEST COLORADO...

CITY           SKY/WX    TMP DP  RH WIND       PRES   REMARKS
CRAIG          PTCLDY    55  49  80 CALM      30.14R
HAYDEN         NOT AVBL
MEEKER         MOCLDY    60  50  69 NE7       30.15R
MOUNT WERNER   NOT AVBL
STEAMBOAT SPGS PTCLDY    58  45  62 CALM      30.19R
WALDEN         PTCLDY    54  37  54 SE6       30.27S
$$

COZ006>008-011-030500-
...WEST CENTRAL VALLEYS...

CITY           SKY/WX    TMP DP  RH WIND       PRES   REMARKS
GRAND JUNCTION PTCLDY    71  52  50 SE7       30.04R
MONTROSE       MOCLDY    69  50  50 SE13      30.15R
EAGLE          MOCLDY    70  46  43 CALM      30.21R
RIFLE          PTCLDY    68  52  56 E7        30.10R
DELTA          MOCLDY    73  50  43 N6        30.09S
NUCLA          MOCLDY    73  39  29 NW5       30.18R
$$

COZ017>023-064>068-030500-
...SOUTHWEST COLORADO...

CITY           SKY/WX    TMP DP  RH WIND       PRES   REMARKS
DURANGO        CLOUDY    68  47  46 SW17      30.25R
CORTEZ         MOCLDY    68  51  54 SW25G33   30.18R
PAGOSA SPRINGS CLOUDY    64  42  44 CALM      30.33R THUNDER
TELLURIDE      MOCLDY    57  48  73 SE5       30.41S
WOLF CREEK PAS NOT AVBL
$$

COZ009-010-012-014-032>034-037-058>063-030500-
...CENTRAL COLORADO...

CITY           SKY/WX    TMP DP  RH WIND       PRES   REMARKS
ASPEN          CLOUDY    64  43  46 SE7       30.27S
BUENA VISTA    CLOUDY    63  37  37 CALM      30.30S
COPPER MTN     MOCLDY    54  34  47 S12       30.59F
BERTHOUD PASS  FAIR      45  34  65 W3        30.64S
COTTONWOOD PAS CLOUDY    61  34  36 SW10      30.44S
GUNNISON       MOCLDY    57  48  72 N5        30.35R
KREMMLING      MOCLDY    59  45  58 CALM      30.26R
LEADVILLE      CLOUDY    48  45  89 NE7       30.43F
MONARCH PASS   MOCLDY    46  34  61 W15       30.69S
SALIDA         CLOUDY    65  39  38 S5        30.34R
SUNLIGHT       MOCLDY    48  45  87 CALM      30.53R
WILKERSON PASS PTCLDY    52  34  50 W6        30.55F
$$

COZ069>075-030500-
...SAN LUIS VALLEY/SANGRE DE CRISTO MOUNTAINS...

CITY           SKY/WX    TMP DP  RH WIND       PRES   REMARKS
ALAMOSA        LGT RAIN  57  51  80 SW16      30.34R
LA VETA PASS   CLOUDY    52  41  66 MISG      30.47F
SAGUACHE       MOCLDY    55  43  62 N8        30.33R
$$

COZ035-036-038>040-030500-
...NORTHERN COLORADO FRONT RANGE...

CITY           SKY/WX    TMP DP  RH WIND       PRES   REMARKS
DENVER INTL AP MOCLDY    74  40  29 S8        30.05R
DMNS CITY PARK   N/A     72  47  40 E12       30.04S
AURORA         MOCLDY    74  40  29 SW6       30.07S
FRONT RANGE AP NOT AVBL
ERIE MUNI ARPT PTCLDY    71  44  37 CALM      30.02S
BOULDER MUN AP PTCLDY    79  37  22 SW6       30.03S
CENTENNIAL     MOCLDY    75  41  29 SE8       30.09R
BROOMFIELD     MOCLDY    72  41  33 SW6       30.07R
FORT COLLINS   PTCLDY    72  52  49 CALM      30.01S
LONGMONT       PTCLDY    69  47  44 W5        30.03S
$$

COZ041-046-047-076>085-087-088-030500-
...PIKES PEAK/PALMER DIVIDE AND SOUTHERN FOOTHILLS...

CITY           SKY/WX    TMP DP  RH WIND       PRES   REMARKS
COLO. SPRINGS  MOCLDY    72  45  37 E9        30.14R
A. F. ACADEMY  MOCLDY    65  46  50 N8        30.16R
ELLICOTT       MOCLDY   N/A N/A N/A S6        30.12S
FALCON         MOCLDY    65  48  55 MISG      30.20S
FORT CARSON    CLOUDY    72  46  39 SE7       30.10R
LIMON          CLOUDY    58  49  72 NE5       30.06R
MONUMENT HILL  MOCLDY    61  43  51 S6        30.20S
TRINIDAD       CLOUDY    74  47  38 SW14      30.13R
$$

COZ042>045-048>051-090-091-030500-
...NORTHEAST COLORADO...

CITY           SKY/WX    TMP DP  RH WIND       PRES   REMARKS
GREELEY ARPT   PTCLDY    66  52  59 NE3       30.00R
AKRON          PTCLDY    70  40  33 SW7       29.99R
BURLINGTON     MOCLDY    68  47  46 S7        29.96R
WRAY           CLOUDY    69  52  54 CALM      29.91R
STERLING       PTCLDY    70  50  49 CALM      29.93S
HOLYOKE        CLEAR     73  63  68 E9        29.92S
FORT MORGAN    PTCLDY    75  39  27 CALM      29.98S
$$

COZ086-089-092>099-030500-
...SOUTHEAST COLORADO...

CITY           SKY/WX    TMP DP  RH WIND       PRES   REMARKS
PUEBLO         CLOUDY    80  46  30 E3        30.00R
LA JUNTA       MOCLDY    79  45  29 SW10      29.97R
LAMAR          PTCLDY    81  53  37 S13       29.90R
SPRINGFIELD      N/A     78  54  43 S20       30.00R
$$




USA.gov is the U.S. government's official web portal to all federal, state and local government web resources and services.